Home   Weather   Mabalacat   Past weeks

Flag for Philippines Past Weather in Mabalacat, Philippines — Yesterday and Last 2 Weeks

Now
73 °F

Partly cloudy.


Feels Like: 70 °F
Forecast: 75 / 89 °F
Wind: 5 mph from West

Location: Clarkfield Pampanga International Airport

Current Time: Oct 1, 2016 at 4:28:33 AM

Latest Report: Oct 1, 2016 at 4:00 AM


Visibility: 6 mi

Pressure: 29.80 "Hg

Humidity: 94%

Dew Point: 72 °F

Location of MabalacatLocation

Past Weather in Mabalacat — Graph

°F

Mabalacat Temperature Yesterday

Maximum temperature yesterday: 81 °F (at 10:00 AM)
Minimum temperature yesterday: 75 °F (at 12:00 AM)
Average temperature yesterday: 77 °F

High & Low Weather Summary for the Past Weeks

 TemperatureHumidityPressure
High93 °F (Sep 24, 4:00 PM)100% (Sep 19, 2:00 PM)29.92 "Hg (Sep 19, 2:00 PM)
Low73 °F (Oct 1, 3:00 AM)59% (Sep 24, 4:00 PM)29.62 "Hg (Sep 25, 3:00 PM)
Average80 °F87%29.78 "Hg
* Reported Sep 16 3:00 AM — Oct 1 3:00 AM, Mabalacat, Weather by CustomWeather, © 2016

Note: Actual official high and low records may vary slightly from our data, if they occured in-between our weather recording intervals... More about our weather records

Advertising

Mabalacat Weather History for the Previous 24 Hours

Scroll right to see more
 ConditionsComfort  
Time TempWeatherWind HumidityBarometerVisibility
3:00 AM
Sat, Oct 1
73 °FPartly cloudy.1 mph100%29.80 "Hg6 mi
2:00 AM75 °FPartly cloudy.1 mph94%29.83 "Hg6 mi
1:00 AM75 °FPartly cloudy.3 mph94%29.83 "Hg6 mi
12:00 AM75 °FPartly cloudy.3 mph94%29.86 "Hg6 mi
11:00 PM
Fri, Sep 30
75 °FPartly cloudy.1 mph94%29.89 "Hg6 mi
10:00 PM75 °FPartly cloudy.2 mph100%29.89 "Hg6 mi
9:00 PM75 °FMostly cloudy.2 mph100%29.83 "Hg6 mi
8:00 PM77 °FMostly cloudy.2 mph94%29.80 "Hg5 mi
7:00 PM77 °FLight rain. Mostly cloudy.2 mph94%29.80 "Hg5 mi
6:00 PM77 °FSprinkles. Partly cloudy.5 mph94%29.77 "Hg5 mi
5:00 PM77 °FBroken clouds.2 mph94%29.74 "Hg6 mi
4:00 PM77 °FLight rain. Broken clouds.1 mph94%29.74 "Hg5 mi
3:00 PM77 °FLight rain. More clouds than sun.3 mph94%29.77 "Hg5 mi
2:00 PM75 °FRain. More clouds than sun.5 mph94%29.77 "Hg4 mi
1:00 PM77 °FLight rain. More clouds than sun.9 mph89%29.80 "Hg4 mi
12:00 PM77 °FLight rain. More clouds than sun.7 mph94%29.83 "Hg6 mi
11:00 AM79 °FLight rain. Broken clouds.9 mph89%29.86 "Hg6 mi
10:00 AM81 °FBroken clouds.8 mph89%29.86 "Hg3 mi
9:00 AM79 °FMore clouds than sun.2 mph94%29.86 "Hg3 mi
8:00 AM79 °FBroken clouds.2 mph89%29.83 "Hg3 mi
7:00 AM77 °FBroken clouds.3 mph94%29.83 "Hg3 mi
6:00 AM75 °FBroken clouds.2 mph94%29.83 "Hg4 mi
5:00 AM75 °FPartly cloudy.5 mph94%29.80 "Hg6 mi
4:00 AM75 °FPartly cloudy.1 mph94%29.80 "Hg6 mi
Weather by CustomWeather, © 2016

See weather overviewHow to use our weather pages